Time,TemperatureF,DewpointF,PressureIn,WindDirection,WindDirectionDegrees,WindSpeedMPH,WindSpeedGustMPH,Humidity,HourlyPrecipIn,Conditions,Clouds,dailyrainin,SoftwareType,DateUTC
2013-01-22 00:00:00,39.8,20.5,29.90,North,8,0.0,7.0,46,0.00,,CLR,0.00,VWS V14.00,2013-01-22 05:00:00,
2013-01-22 00:01:00,39.7,20.3,29.90,North,8,0.0,0.0,45,0.00,,CLR,0.00,VWS V14.00,2013-01-22 05:01:00,
2013-01-22 00:06:00,39.6,20.3,29.91,North,359,6.3,7.6,46,0.00,,CLR,0.00,VWS V14.00,2013-01-22 05:06:00,
2013-01-22 00:11:00,39.5,20.4,29.91,WNW,285,0.0,9.0,46,0.00,,CLR,0.00,VWS V14.00,2013-01-22 05:11:00,
2013-01-22 00:16:00,39.5,20.5,29.91,North,359,0.0,5.2,46,0.00,,CLR,0.00,VWS V14.00,2013-01-22 05:16:00,
2013-01-22 00:21:00,39.3,20.5,29.91,NNW,342,4.5,10.3,46,0.00,,CLR,0.00,VWS V14.00,2013-01-22 05:21:00,
2013-01-22 00:26:00,39.1,20.6,29.91,NNW,347,5.3,10.6,47,0.00,,CLR,0.00,VWS V14.00,2013-01-22 05:26:00,
2013-01-22 00:31:00,38.9,20.8,29.91,North,349,0.0,3.0,48,0.00,,CLR,0.00,VWS V14.00,2013-01-22 05:31:00,
2013-01-22 00:36:00,38.5,20.2,29.91,NNW,332,5.7,13.1,47,0.00,,CLR,0.00,VWS V14.00,2013-01-22 05:36:00,
2013-01-22 00:41:00,38.3,19.9,29.91,North,8,9.3,13.1,47,0.00,,CLR,0.00,VWS V14.00,2013-01-22 05:41:00,
2013-01-22 00:46:00,38.3,19.5,29.91,NNW,333,4.5,8.1,46,0.00,,CLR,0.00,VWS V14.00,2013-01-22 05:46:00,
2013-01-22 00:51:00,38.1,19.2,29.91,North,0,5.1,14.2,46,0.00,,CLR,0.00,VWS V14.00,2013-01-22 05:51:00,
2013-01-22 00:56:00,38.0,18.8,29.91,NNW,340,7.4,14.2,45,0.00,,CLR,0.00,VWS V14.00,2013-01-22 05:56:00,
2013-01-22 01:01:00,37.7,18.1,29.91,NNW,335,6.8,13.9,45,0.00,,CLR,0.00,VWS V14.00,2013-01-22 06:01:00,
2013-01-22 01:06:00,37.7,18.1,29.91,NNE,18,7.0,13.9,45,0.00,,CLR,0.00,VWS V14.00,2013-01-22 06:06:00,
2013-01-22 01:11:00,37.3,17.6,29.91,North,7,3.5,14.5,44,0.00,,CLR,0.00,VWS V14.00,2013-01-22 06:11:00,
2013-01-22 01:16:00,36.9,17.1,29.92,North,353,12.0,12.0,44,0.00,,CLR,0.00,VWS V14.00,2013-01-22 06:16:00,
2013-01-22 01:21:00,37.0,17.2,29.92,NNW,342,5.5,12.0,44,0.00,,CLR,0.00,VWS V14.00,2013-01-22 06:21:00,
2013-01-22 01:26:00,36.8,17.3,29.92,NW,321,8.1,12.0,45,0.00,,CLR,0.00,VWS V14.00,2013-01-22 06:26:00,
2013-01-22 01:31:00,36.4,17.0,29.92,North,352,6.1,7.8,45,0.00,,CLR,0.00,VWS V14.00,2013-01-22 06:31:00,
2013-01-22 01:36:00,35.7,16.4,29.92,North,359,6.3,8.8,45,0.00,,CLR,0.00,VWS V14.00,2013-01-22 06:36:00,
2013-01-22 01:41:00,35.6,16.4,29.92,NW,323,7.6,8.8,45,0.00,,CLR,0.00,VWS V14.00,2013-01-22 06:41:00,
2013-01-22 01:46:00,33.7,14.6,29.93,North,359,3.3,7.2,45,0.00,,CLR,0.00,VWS V14.00,2013-01-22 06:46:00,
2013-01-22 01:51:00,35.7,16.3,29.93,NNW,336,8.5,9.1,45,0.00,,CLR,0.00,VWS V14.00,2013-01-22 06:51:00,
2013-01-22 01:56:00,35.7,16.2,29.94,North,349,9.5,9.6,44,0.00,,CLR,0.00,VWS V14.00,2013-01-22 06:56:00,
2013-01-22 02:01:00,35.4,15.7,29.94,NNE,14,4.8,10.5,44,0.00,,CLR,0.00,VWS V14.00,2013-01-22 07:01:00,
2013-01-22 02:06:00,35.2,15.5,29.94,North,353,5.2,10.5,44,0.00,,CLR,0.00,VWS V14.00,2013-01-22 07:06:00,
2013-01-22 02:11:00,34.9,15.6,29.94,NNW,328,0.0,10.5,45,0.00,,CLR,0.00,VWS V14.00,2013-01-22 07:11:00,
2013-01-22 02:16:00,34.7,15.6,29.94,NW,321,0.0,0.0,45,0.00,,CLR,0.00,VWS V14.00,2013-01-22 07:16:00,
2013-01-22 02:21:00,34.4,15.2,29.94,NNW,342,7.2,8.0,45,0.00,,CLR,0.00,VWS V14.00,2013-01-22 07:21:00,
2013-01-22 02:26:00,34.2,15.1,29.94,NNW,339,0.0,8.9,45,0.00,,CLR,0.00,VWS V14.00,2013-01-22 07:26:00,
2013-01-22 02:31:00,32.4,13.9,29.95,WNW,287,0.0,0.0,46,0.00,,CLR,0.00,VWS V14.00,2013-01-22 07:31:00,
2013-01-22 02:36:00,33.7,15.5,29.95,WNW,287,0.0,0.0,47,0.00,,CLR,0.00,VWS V14.00,2013-01-22 07:36:00,
2013-01-22 02:41:00,31.9,14.6,29.95,North,359,0.0,3.0,48,0.00,,CLR,0.00,VWS V14.00,2013-01-22 07:41:00,
2013-01-22 02:46:00,32.1,15.2,29.95,NE,46,0.0,0.0,49,0.00,,CLR,0.00,VWS V14.00,2013-01-22 07:46:00,
2013-01-22 02:51:00,31.6,15.0,29.95,NE,46,0.0,0.0,50,0.00,,CLR,0.00,VWS V14.00,2013-01-22 07:51:00,
2013-01-22 02:56:00,31.2,14.9,29.95,NE,46,0.0,0.0,50,0.00,,CLR,0.00,VWS V14.00,2013-01-22 07:56:00,
2013-01-22 03:01:00,31.1,15.0,29.95,NE,46,0.0,0.0,51,0.00,,CLR,0.00,VWS V14.00,2013-01-22 08:01:00,
2013-01-22 03:06:00,30.7,15.0,29.95,NE,46,0.0,0.0,52,0.00,,CLR,0.00,VWS V14.00,2013-01-22 08:06:00,
2013-01-22 03:11:00,30.2,14.7,29.96,NNE,27,0.0,5.5,52,0.00,,CLR,0.00,VWS V14.00,2013-01-22 08:11:00,
2013-01-22 03:16:00,30.7,15.4,29.96,NNE,21,0.0,0.0,53,0.00,,CLR,0.00,VWS V14.00,2013-01-22 08:16:00,
2013-01-22 03:21:00,30.7,15.8,29.97,NNE,21,0.0,0.0,53,0.00,,CLR,0.00,VWS V14.00,2013-01-22 08:21:00,
2013-01-22 03:26:00,30.8,16.0,29.97,NNE,21,3.3,5.4,54,0.00,,CLR,0.00,VWS V14.00,2013-01-22 08:26:00,
2013-01-22 03:31:00,30.2,15.4,29.97,NNE,15,0.0,0.0,54,0.00,,CLR,0.00,VWS V14.00,2013-01-22 08:31:00,
2013-01-22 03:36:00,29.3,14.9,29.97,North,356,6.9,7.5,54,0.00,,CLR,0.00,VWS V14.00,2013-01-22 08:36:00,
2013-01-22 03:41:00,29.8,14.8,29.97,North,3,6.1,11.6,53,0.00,,CLR,0.00,VWS V14.00,2013-01-22 08:41:00,
2013-01-22 03:46:00,29.6,14.7,29.97,NNE,18,0.0,0.0,53,0.00,,CLR,0.00,VWS V14.00,2013-01-22 08:46:00,
2013-01-22 03:51:00,29.5,14.4,29.98,NNW,339,3.2,7.7,53,0.00,,CLR,0.00,VWS V14.00,2013-01-22 08:51:00,
2013-01-22 03:56:00,29.6,14.9,29.98,North,359,0.0,7.7,54,0.00,,CLR,0.00,VWS V14.00,2013-01-22 08:56:00,
2013-01-22 04:01:00,29.0,14.4,29.98,North,352,7.3,7.3,54,0.00,,CLR,0.00,VWS V14.00,2013-01-22 09:01:00,
2013-01-22 04:06:00,28.8,14.2,29.98,NNE,27,0.0,10.7,54,0.00,,CLR,0.00,VWS V14.00,2013-01-22 09:06:00,
2013-01-22 04:11:00,28.6,13.7,29.98,NW,315,4.9,11.0,53,0.00,,CLR,0.00,VWS V14.00,2013-01-22 09:11:00,
2013-01-22 04:16:00,28.5,13.7,29.99,NNW,330,4.3,6.9,53,0.00,,CLR,0.00,VWS V14.00,2013-01-22 09:16:00,
2013-01-22 04:21:00,28.7,13.8,29.99,North,8,0.0,10.4,53,0.00,,CLR,0.00,VWS V14.00,2013-01-22 09:21:00,
2013-01-22 04:26:00,28.4,13.4,29.99,North,10,5.1,11.0,53,0.00,,CLR,0.00,VWS V14.00,2013-01-22 09:26:00,
2013-01-22 04:31:00,28.1,13.1,29.99,NNE,17,0.0,8.9,53,0.00,,CLR,0.00,VWS V14.00,2013-01-22 09:31:00,
2013-01-22 04:36:00,27.8,12.6,29.98,NNW,335,12.2,15.2,52,0.00,,CLR,0.00,VWS V14.00,2013-01-22 09:36:00,
2013-01-22 04:41:00,28.3,13.3,29.99,NE,34,5.9,15.2,53,0.00,,CLR,0.00,VWS V14.00,2013-01-22 09:41:00,
2013-01-22 04:46:00,28.1,13.1,29.99,NNE,21,8.3,8.3,53,0.00,,CLR,0.00,VWS V14.00,2013-01-22 09:46:00,
2013-01-22 04:51:00,28.0,13.1,30.00,NE,39,7.3,10.9,53,0.00,,CLR,0.00,VWS V14.00,2013-01-22 09:51:00,
2013-01-22 04:56:00,27.7,12.6,30.00,NNW,346,7.6,12.4,53,0.00,,CLR,0.00,VWS V14.00,2013-01-22 09:56:00,
2013-01-22 05:01:00,27.2,12.2,30.00,NNE,13,6.3,9.6,53,0.00,,CLR,0.00,VWS V14.00,2013-01-22 10:01:00,
2013-01-22 05:06:00,27.1,11.9,30.00,NNW,345,6.8,11.4,52,0.00,,CLR,0.00,VWS V14.00,2013-01-22 10:06:00,
2013-01-22 05:11:00,27.2,11.8,30.01,NNE,15,5.7,13.0,52,0.00,,CLR,0.00,VWS V14.00,2013-01-22 10:11:00,
2013-01-22 05:16:00,27.3,12.3,30.01,NNE,21,6.1,8.7,53,0.00,,CLR,0.00,VWS V14.00,2013-01-22 10:16:00,
2013-01-22 05:21:00,27.3,11.8,30.01,NE,42,5.2,12.5,51,0.00,,CLR,0.00,VWS V14.00,2013-01-22 10:21:00,
2013-01-22 05:26:00,27.3,11.8,30.02,North,8,4.9,12.5,52,0.00,,CLR,0.00,VWS V14.00,2013-01-22 10:26:00,
2013-01-22 05:31:00,27.3,11.4,30.02,NNE,24,6.6,7.0,51,0.00,,CLR,0.00,VWS V14.00,2013-01-22 10:31:00,
2013-01-22 05:36:00,27.1,10.7,30.02,NNW,343,7.3,15.2,49,0.00,,CLR,0.00,VWS V14.00,2013-01-22 10:36:00,
2013-01-22 05:41:00,27.2,10.6,30.03,North,0,0.0,15.2,49,0.00,,CLR,0.00,VWS V14.00,2013-01-22 10:41:00,
2013-01-22 05:46:00,27.1,9.9,30.03,NNE,14,0.0,9.8,48,0.00,,CLR,0.00,VWS V14.00,2013-01-22 10:46:00,
2013-01-22 05:51:00,27.0,9.8,30.03,NNW,345,9.7,11.9,48,0.00,,CLR,0.00,VWS V14.00,2013-01-22 10:51:00,
2013-01-22 05:56:00,26.9,9.5,30.03,North,3,4.5,11.9,47,0.00,,CLR,0.00,VWS V14.00,2013-01-22 10:56:00,
2013-01-22 06:01:00,26.6,9.1,30.03,North,359,0.0,7.8,47,0.00,,CLR,0.00,VWS V14.00,2013-01-22 11:01:00,
2013-01-22 06:06:00,26.9,9.1,30.04,North,354,0.0,11.5,46,0.00,,CLR,0.00,VWS V14.00,2013-01-22 11:06:00,
2013-01-22 06:12:00,26.7,8.7,30.04,NNE,24,4.9,11.5,46,0.00,,CLR,0.00,VWS V14.00,2013-01-22 11:12:00,
2013-01-22 06:17:00,26.8,9.1,30.04,NNE,32,8.0,8.0,46,0.00,,CLR,0.00,VWS V14.00,2013-01-22 11:17:00,
2013-01-22 06:22:00,26.6,8.3,30.05,NNE,21,5.7,11.7,45,0.00,,CLR,0.00,VWS V14.00,2013-01-22 11:22:00,
2013-01-22 06:27:00,26.9,8.8,30.05,NNW,333,0.0,11.7,46,0.00,,CLR,0.00,VWS V14.00,2013-01-22 11:27:00,
2013-01-22 06:32:00,26.8,8.5,30.06,North,4,0.0,8.3,45,0.00,,CLR,0.00,VWS V14.00,2013-01-22 11:32:00,
2013-01-22 06:37:00,26.7,8.3,30.06,NW,305,0.0,8.3,45,0.00,,CLR,0.00,VWS V14.00,2013-01-22 11:37:00,
2013-01-22 06:42:00,26.7,8.6,30.06,NNE,32,0.0,8.3,46,0.00,,CLR,0.00,VWS V14.00,2013-01-22 11:42:00,
2013-01-22 06:47:00,27.0,8.8,30.06,NW,304,0.0,3.4,46,0.00,,CLR,0.00,VWS V14.00,2013-01-22 11:47:00,
2013-01-22 06:52:00,26.8,8.2,30.07,NNE,28,3.5,11.4,45,0.00,,CLR,0.00,VWS V14.00,2013-01-22 11:52:00,
2013-01-22 06:57:00,26.8,7.7,30.06,NNE,17,5.6,11.4,44,0.00,,CLR,0.00,VWS V14.00,2013-01-22 11:57:00,
2013-01-22 07:02:00,26.7,7.8,30.07,NNE,30,4.2,10.7,44,0.00,,CLR,0.00,VWS V14.00,2013-01-22 12:02:00,
2013-01-22 07:07:00,26.7,8.1,30.07,North,354,9.6,10.7,45,0.00,,CLR,0.00,VWS V14.00,2013-01-22 12:07:00,
2013-01-22 07:12:00,26.7,8.0,30.07,NNE,22,6.7,10.7,44,0.00,,CLR,0.00,VWS V14.00,2013-01-22 12:12:00,
2013-01-22 07:17:00,26.5,7.9,30.08,North,11,0.0,5.4,45,0.00,,CLR,0.00,VWS V14.00,2013-01-22 12:17:00,
2013-01-22 07:22:00,26.5,7.5,30.08,NE,34,6.8,10.5,44,0.00,,CLR,0.00,VWS V14.00,2013-01-22 12:22:00,
2013-01-22 07:27:00,26.3,7.3,30.08,NNE,14,5.3,12.5,44,0.00,,CLR,0.00,VWS V14.00,2013-01-22 12:27:00,
2013-01-22 07:32:00,26.4,7.6,30.08,NE,51,9.6,9.6,44,0.00,,CLR,0.00,VWS V14.00,2013-01-22 12:32:00,
2013-01-22 07:37:00,26.4,7.7,30.08,North,11,0.0,14.2,44,0.00,,CLR,0.00,VWS V14.00,2013-01-22 12:37:00,
2013-01-22 07:42:00,26.4,7.3,30.09,NW,325,0.0,14.2,44,0.00,,CLR,0.00,VWS V14.00,2013-01-22 12:42:00,
2013-01-22 07:47:00,26.3,7.0,30.09,East,82,4.8,9.3,43,0.00,,CLR,0.00,VWS V14.00,2013-01-22 12:47:00,
2013-01-22 07:52:00,26.2,6.5,30.10,NNW,338,5.3,12.5,42,0.00,,CLR,0.00,VWS V14.00,2013-01-22 12:52:00,
2013-01-22 07:57:00,26.3,7.1,30.10,North,4,9.3,12.5,43,0.00,,CLR,0.00,VWS V14.00,2013-01-22 12:57:00,
2013-01-22 08:02:00,26.2,7.0,30.10,North,359,3.5,9.3,43,0.00,,CLR,0.00,VWS V14.00,2013-01-22 13:02:00,
2013-01-22 08:07:00,26.1,6.7,30.10,NNE,22,8.7,12.1,43,0.00,,CLR,0.00,VWS V14.00,2013-01-22 13:07:00,
2013-01-22 08:12:00,26.2,6.8,30.10,North,350,4.5,19.8,43,0.00,,CLR,0.00,VWS V14.00,2013-01-22 13:12:00,
2013-01-22 08:17:00,26.2,6.5,30.10,North,353,8.9,9.9,42,0.00,,CLR,0.00,VWS V14.00,2013-01-22 13:17:00,
2013-01-22 08:22:00,26.2,6.6,30.10,North,1,7.0,9.9,43,0.00,,CLR,0.00,VWS V14.00,2013-01-22 13:22:00,
2013-01-22 08:27:00,26.4,6.3,30.10,NW,321,7.8,13.6,42,0.00,,CLR,0.00,VWS V14.00,2013-01-22 13:27:00,
2013-01-22 08:32:00,26.4,6.4,30.10,NNE,27,4.3,7.6,42,0.00,,CLR,0.00,VWS V14.00,2013-01-22 13:32:00,
2013-01-22 08:38:00,26.4,6.5,30.11,North,8,0.0,9.6,42,0.00,,CLR,0.00,VWS V14.00,2013-01-22 13:38:00,
2013-01-22 08:43:00,26.4,5.7,30.11,NNE,22,7.0,14.2,41,0.00,,CLR,0.00,VWS V14.00,2013-01-22 13:43:00,
2013-01-22 08:48:00,26.5,5.5,30.11,North,8,8.7,15.0,40,0.00,,CLR,0.00,VWS V14.00,2013-01-22 13:48:00,
2013-01-22 08:53:00,26.6,5.5,30.12,North,8,6.5,15.0,40,0.00,,CLR,0.00,VWS V14.00,2013-01-22 13:53:00,
2013-01-22 08:58:00,26.6,5.2,30.12,WNW,294,11.4,15.0,39,0.00,,CLR,0.00,VWS V14.00,2013-01-22 13:58:00,
2013-01-22 09:03:00,26.6,5.2,30.13,NW,322,11.4,11.6,39,0.00,,CLR,0.00,VWS V14.00,2013-01-22 14:03:00,
2013-01-22 09:08:00,26.8,5.3,30.13,NE,42,11.2,12.7,39,0.00,,CLR,0.00,VWS V14.00,2013-01-22 14:08:00,
2013-01-22 09:13:00,26.9,5.1,30.13,North,4,6.5,16.0,39,0.00,,CLR,0.00,VWS V14.00,2013-01-22 14:13:00,
2013-01-22 09:18:00,26.7,4.8,30.13,North,359,3.2,14.4,38,0.00,,CLR,0.00,VWS V14.00,2013-01-22 14:18:00,
2013-01-22 09:23:00,26.9,4.5,30.13,NNW,345,15.7,16.9,38,0.00,,CLR,0.00,VWS V14.00,2013-01-22 14:23:00,
2013-01-22 09:28:00,27.0,4.3,30.13,North,359,9.2,17.6,37,0.00,,CLR,0.00,VWS V14.00,2013-01-22 14:28:00,
2013-01-22 09:33:00,27.0,4.3,30.14,NNW,346,7.9,17.1,37,0.00,,CLR,0.00,VWS V14.00,2013-01-22 14:33:00,
2013-01-22 09:38:00,27.0,4.3,30.13,North,10,5.6,17.1,37,0.00,,CLR,0.00,VWS V14.00,2013-01-22 14:38:00,
2013-01-22 09:43:00,27.2,4.5,30.14,NNW,342,14.7,17.1,37,0.00,,CLR,0.00,VWS V14.00,2013-01-22 14:43:00,
2013-01-22 09:48:00,27.2,4.1,30.14,NNW,336,10.6,12.4,36,0.00,,CLR,0.00,VWS V14.00,2013-01-22 14:48:00,
2013-01-22 09:53:00,27.1,4.2,30.14,NNE,30,6.0,13.5,37,0.00,,CLR,0.00,VWS V14.00,2013-01-22 14:53:00,
2013-01-22 09:58:00,26.9,3.9,30.14,North,11,7.6,15.3,37,0.00,,CLR,0.00,VWS V14.00,2013-01-22 14:58:00,
2013-01-22 10:03:00,27.1,3.9,30.15,NNE,17,0.0,13.0,36,0.00,,CLR,0.00,VWS V14.00,2013-01-22 15:03:00,
2013-01-22 10:08:00,27.2,4.4,30.15,North,3,6.3,13.4,37,0.00,,CLR,0.00,VWS V14.00,2013-01-22 15:08:00,
2013-01-22 10:13:00,27.2,4.3,30.15,NNW,343,8.9,17.2,37,0.00,,CLR,0.00,VWS V14.00,2013-01-22 15:13:00,
2013-01-22 10:18:00,27.4,4.1,30.15,NNE,25,4.4,12.8,36,0.00,,CLR,0.00,VWS V14.00,2013-01-22 15:18:00,
2013-01-22 10:23:00,27.3,4.0,30.15,NNW,336,8.0,14.5,36,0.00,,CLR,0.00,VWS V14.00,2013-01-22 15:23:00,
2013-01-22 10:28:00,27.7,4.1,30.15,North,354,7.5,15.3,36,0.00,,CLR,0.00,VWS V14.00,2013-01-22 15:28:00,
2013-01-22 10:33:00,27.6,3.5,30.15,NNW,345,16.7,18.8,35,0.00,,CLR,0.00,VWS V14.00,2013-01-22 15:33:00,
2013-01-22 10:38:00,27.5,3.6,30.15,NW,322,7.0,18.8,35,0.00,,CLR,0.00,VWS V14.00,2013-01-22 15:38:00,
2013-01-22 10:43:00,27.8,3.9,30.15,North,359,8.6,18.8,35,0.00,,CLR,0.00,VWS V14.00,2013-01-22 15:43:00,
2013-01-22 10:48:00,27.5,3.2,30.15,WNW,285,3.4,14.1,35,0.00,,CLR,0.00,VWS V14.00,2013-01-22 15:48:00,
2013-01-22 10:53:00,27.5,3.2,30.15,NNW,343,10.0,15.3,35,0.00,,CLR,0.00,VWS V14.00,2013-01-22 15:53:00,
2013-01-22 10:58:00,27.9,4.1,30.15,NNW,339,7.0,15.3,35,0.00,,CLR,0.00,VWS V14.00,2013-01-22 15:58:00,
2013-01-22 11:03:00,27.6,3.7,30.15,NNW,346,8.1,14.6,35,0.00,,CLR,0.00,VWS V14.00,2013-01-22 16:03:00,
2013-01-22 11:08:00,27.6,3.4,30.15,North,359,3.5,16.0,35,0.00,,CLR,0.00,VWS V14.00,2013-01-22 16:08:00,
2013-01-22 11:13:00,28.0,4.0,30.15,North,357,7.6,16.0,35,0.00,,CLR,0.00,VWS V14.00,2013-01-22 16:13:00,
2013-01-22 11:18:00,27.7,3.1,30.15,NNW,342,15.6,20.2,34,0.00,,CLR,0.00,VWS V14.00,2013-01-22 16:18:00,
2013-01-22 11:23:00,28.1,3.7,30.15,West,276,0.0,20.2,35,0.00,,CLR,0.00,VWS V14.00,2013-01-22 16:23:00,
2013-01-22 11:28:00,28.1,3.2,30.15,NNW,345,4.4,20.2,34,0.00,,CLR,0.00,VWS V14.00,2013-01-22 16:28:00,
2013-01-22 11:33:00,28.6,3.2,30.14,North,10,0.0,10.7,33,0.00,,CLR,0.00,VWS V14.00,2013-01-22 16:33:00,
2013-01-22 11:38:00,28.3,3.4,30.14,North,352,7.0,12.7,34,0.00,,CLR,0.00,VWS V14.00,2013-01-22 16:38:00,
2013-01-22 11:43:00,28.2,3.5,30.14,NNW,330,2.7,14.6,34,0.00,,CLR,0.00,VWS V14.00,2013-01-22 16:43:00,
2013-01-22 11:48:00,27.9,2.9,30.14,NW,319,6.1,12.1,34,0.00,,CLR,0.00,VWS V14.00,2013-01-22 16:48:00,
2013-01-22 11:53:00,28.5,4.0,30.14,North,350,5.2,12.1,34,0.00,,CLR,0.00,VWS V14.00,2013-01-22 16:53:00,
2013-01-22 11:58:00,28.4,3.8,30.14,NW,325,9.5,12.6,34,0.00,,CLR,0.00,VWS V14.00,2013-01-22 16:58:00,
2013-01-22 12:03:00,28.4,3.3,30.14,NW,312,4.8,13.4,34,0.00,,CLR,0.00,VWS V14.00,2013-01-22 17:03:00,
2013-01-22 12:08:00,28.6,3.6,30.14,NNE,28,0.0,13.7,34,0.00,,CLR,0.00,VWS V14.00,2013-01-22 17:08:00,
2013-01-22 12:13:00,29.1,2.6,30.13,NW,304,10.7,16.3,32,0.00,,CLR,0.00,VWS V14.00,2013-01-22 17:13:00,
2013-01-22 12:18:00,28.9,2.6,30.13,WNW,290,7.8,12.4,32,0.00,,CLR,0.00,VWS V14.00,2013-01-22 17:18:00,
2013-01-22 12:23:00,29.0,2.4,30.13,NNE,15,4.5,16.5,31,0.00,,CLR,0.00,VWS V14.00,2013-01-22 17:23:00,
2013-01-22 12:28:00,28.9,2.9,30.12,WNW,301,4.2,16.5,32,0.00,,CLR,0.00,VWS V14.00,2013-01-22 17:28:00,
2013-01-22 12:33:00,29.3,2.6,30.12,NNW,332,8.0,13.7,31,0.00,,CLR,0.00,VWS V14.00,2013-01-22 17:33:00,
2013-01-22 12:38:00,29.1,2.1,30.12,NNE,18,6.6,18.6,31,0.00,,CLR,0.00,VWS V14.00,2013-01-22 17:38:00,
2013-01-22 12:43:00,28.6,2.4,30.12,WNW,283,8.5,18.6,32,0.00,,CLR,0.00,VWS V14.00,2013-01-22 17:43:00,
2013-01-22 12:48:00,29.1,2.2,30.12,West,277,7.6,16.9,31,0.00,,CLR,0.00,VWS V14.00,2013-01-22 17:48:00,
2013-01-22 12:53:00,28.4,1.1,30.12,North,357,8.8,16.9,30,0.00,,CLR,0.00,VWS V14.00,2013-01-22 17:53:00,
2013-01-22 12:58:00,28.4,2.0,30.11,NW,318,7.5,16.9,32,0.00,,CLR,0.00,VWS V14.00,2013-01-22 17:58:00,
2013-01-22 13:03:00,27.5,0.7,30.11,NNE,22,6.6,14.9,31,0.00,,CLR,0.00,VWS V14.00,2013-01-22 18:03:00,
2013-01-22 13:08:00,25.8,-0.4,30.11,West,273,8.0,14.9,31,0.00,,CLR,0.00,VWS V14.00,2013-01-22 18:08:00,
2013-01-22 13:13:00,29.1,2.0,30.11,NE,35,4.5,14.9,31,0.00,,CLR,0.00,VWS V14.00,2013-01-22 18:13:00,
2013-01-22 13:18:00,28.8,1.6,30.10,NW,309,1.4,13.2,30,0.00,,CLR,0.00,VWS V14.00,2013-01-22 18:18:00,
2013-01-22 13:23:00,30.2,3.2,30.10,NNE,18,9.5,14.8,31,0.00,,CLR,0.00,VWS V14.00,2013-01-22 18:23:00,
2013-01-22 13:28:00,29.5,1.1,30.10,North,10,8.3,16.0,29,0.00,,CLR,0.00,VWS V14.00,2013-01-22 18:28:00,
2013-01-22 13:33:00,29.6,2.1,30.10,NNW,336,7.5,13.0,30,0.00,,CLR,0.00,VWS V14.00,2013-01-22 18:33:00,
2013-01-22 13:38:00,30.0,2.5,30.10,North,359,6.3,15.7,30,0.00,,CLR,0.00,VWS V14.00,2013-01-22 18:38:00,
2013-01-22 13:43:00,30.4,2.5,30.10,North,349,9.2,15.7,30,0.00,,CLR,0.00,VWS V14.00,2013-01-22 18:43:00,
2013-01-22 13:48:00,30.6,2.4,30.10,WNW,294,7.1,17.1,29,0.00,,CLR,0.00,VWS V14.00,2013-01-22 18:48:00,
2013-01-22 13:53:00,30.5,2.8,30.10,North,349,4.9,17.1,30,0.00,,CLR,0.00,VWS V14.00,2013-01-22 18:53:00,
2013-01-22 13:58:00,30.7,3.1,30.09,North,350,5.2,17.1,30,0.00,,CLR,0.00,VWS V14.00,2013-01-22 18:58:00,
2013-01-22 14:03:00,30.3,2.5,30.09,North,359,8.3,16.7,30,0.00,,CLR,0.00,VWS V14.00,2013-01-22 19:03:00,
2013-01-22 14:08:00,31.1,3.4,30.10,North,0,12.4,19.6,30,0.00,,CLR,0.00,VWS V14.00,2013-01-22 19:08:00,
2013-01-22 14:13:00,31.0,4.4,30.10,NW,315,10.6,19.6,32,0.00,,CLR,0.00,VWS V14.00,2013-01-22 19:13:00,
2013-01-22 14:18:00,31.5,4.1,30.09,NW,311,5.4,11.4,31,0.00,,CLR,0.00,VWS V14.00,2013-01-22 19:18:00,
2013-01-22 14:23:00,31.2,3.9,30.10,North,3,4.2,11.4,31,0.00,,CLR,0.00,VWS V14.00,2013-01-22 19:23:00,
2013-01-22 14:28:00,30.7,3.4,30.09,North,357,5.5,14.5,31,0.00,,CLR,0.00,VWS V14.00,2013-01-22 19:28:00,
2013-01-22 14:33:00,31.2,4.0,30.09,NNW,346,5.8,11.7,31,0.00,,CLR,0.00,VWS V14.00,2013-01-22 19:33:00,
2013-01-22 14:38:00,31.1,3.7,30.09,North,7,8.8,11.7,31,0.00,,CLR,0.00,VWS V14.00,2013-01-22 19:38:00,
2013-01-22 14:43:00,30.1,3.3,30.09,NNW,335,6.0,14.7,31,0.00,,CLR,0.00,VWS V14.00,2013-01-22 19:43:00,
2013-01-22 14:48:00,31.5,4.2,30.09,WNW,288,0.0,8.8,31,0.00,,CLR,0.00,VWS V14.00,2013-01-22 19:48:00,
2013-01-22 14:53:00,31.5,4.2,30.10,NNW,339,8.2,10.0,31,0.00,,CLR,0.00,VWS V14.00,2013-01-22 19:53:00,
2013-01-22 14:58:00,31.8,4.1,30.09,NW,314,4.3,10.0,30,0.00,,CLR,0.00,VWS V14.00,2013-01-22 19:58:00,
2013-01-22 15:03:00,31.8,4.4,30.10,NW,315,3.4,11.6,31,0.00,,CLR,0.00,VWS V14.00,2013-01-22 20:03:00,
2013-01-22 15:08:00,32.1,4.5,30.09,NW,323,4.8,11.6,30,0.00,,CLR,0.00,VWS V14.00,2013-01-22 20:08:00,
2013-01-22 15:13:00,32.2,4.8,30.10,North,350,6.2,11.6,31,0.00,,CLR,0.00,VWS V14.00,2013-01-22 20:13:00,
2013-01-22 15:18:00,32.2,3.8,30.10,NNW,345,11.4,11.4,29,0.00,,CLR,0.00,VWS V14.00,2013-01-22 20:18:00,
2013-01-22 15:23:00,32.8,4.0,30.10,NNE,30,2.7,13.4,29,0.00,,CLR,0.00,VWS V14.00,2013-01-22 20:23:00,
2013-01-22 15:28:00,33.3,4.7,30.10,North,1,3.0,13.4,29,0.00,,CLR,0.00,VWS V14.00,2013-01-22 20:28:00,
2013-01-22 15:33:00,33.5,5.0,30.09,NNE,14,8.5,11.1,29,0.00,,CLR,0.00,VWS V14.00,2013-01-22 20:33:00,
2013-01-22 15:38:00,33.1,4.5,30.09,NNW,347,5.8,11.1,29,0.00,,CLR,0.00,VWS V14.00,2013-01-22 20:38:00,
2013-01-22 15:43:00,32.8,3.8,30.10,NW,326,7.3,11.1,29,0.00,,CLR,0.00,VWS V14.00,2013-01-22 20:43:00,
2013-01-22 15:48:00,32.9,4.4,30.10,NW,323,4.7,9.8,29,0.00,,CLR,0.00,VWS V14.00,2013-01-22 20:48:00,
2013-01-22 15:53:00,33.6,4.3,30.10,North,359,9.9,15.6,28,0.00,,CLR,0.00,VWS V14.00,2013-01-22 20:53:00,
2013-01-22 15:58:00,33.2,3.6,30.10,North,6,2.9,15.6,28,0.00,,CLR,0.00,VWS V14.00,2013-01-22 20:58:00,
2013-01-22 16:03:00,33.6,4.2,30.10,NW,305,4.3,9.5,28,0.00,,CLR,0.00,VWS V14.00,2013-01-22 21:03:00,
2013-01-22 16:08:00,34.5,4.8,30.09,NNE,15,0.0,9.5,28,0.00,,CLR,0.00,VWS V14.00,2013-01-22 21:08:00,
2013-01-22 16:13:00,35.2,5.4,30.09,North,350,0.0,9.5,28,0.00,,CLR,0.00,VWS V14.00,2013-01-22 21:13:00,
2013-01-22 16:18:00,35.2,5.6,30.10,NW,308,3.2,8.3,28,0.00,,CLR,0.00,VWS V14.00,2013-01-22 21:18:00,
2013-01-22 16:23:00,34.3,4.6,30.10,North,3,4.4,11.0,28,0.00,,CLR,0.00,VWS V14.00,2013-01-22 21:23:00,
2013-01-22 16:28:00,34.7,5.9,30.10,NNE,31,6.0,12.0,29,0.00,,CLR,0.00,VWS V14.00,2013-01-22 21:28:00,
2013-01-22 16:32:00,35.0,6.1,30.10,NW,314,7.6,8.4,29,0.00,,CLR,0.00,VWS V14.00,2013-01-22 21:32:00,
2013-01-22 16:37:00,34.6,5.6,30.10,North,359,0.0,8.5,29,0.00,,CLR,0.00,VWS V14.00,2013-01-22 21:37:00,
2013-01-22 16:42:00,34.4,5.4,30.10,WNW,300,2.9,10.3,29,0.00,,CLR,0.00,VWS V14.00,2013-01-22 21:42:00,
2013-01-22 16:47:00,34.4,4.9,30.10,NW,321,12.1,12.1,28,0.00,,CLR,0.00,VWS V14.00,2013-01-22 21:47:00,
2013-01-22 16:52:00,33.6,4.5,30.10,North,356,0.0,12.1,29,0.00,,CLR,0.00,VWS V14.00,2013-01-22 21:52:00,
2013-01-22 16:57:00,33.8,4.4,30.10,North,359,2.9,12.1,28,0.00,,CLR,0.00,VWS V14.00,2013-01-22 21:57:00,
2013-01-22 17:02:00,33.0,4.0,30.10,WNW,302,0.0,5.3,29,0.00,,CLR,0.00,VWS V14.00,2013-01-22 22:02:00,
2013-01-22 17:07:00,33.5,4.7,30.10,North,4,0.0,7.6,29,0.00,,CLR,0.00,VWS V14.00,2013-01-22 22:07:00,
2013-01-22 17:12:00,33.5,5.2,30.10,NW,322,0.0,7.6,30,0.00,,CLR,0.00,VWS V14.00,2013-01-22 22:12:00,
2013-01-22 17:17:00,32.1,4.2,30.10,NW,322,0.0,0.0,30,0.00,,CLR,0.00,VWS V14.00,2013-01-22 22:17:00,
2013-01-22 17:22:00,32.1,4.2,30.10,WNW,292,0.0,6.3,30,0.00,,CLR,0.00,VWS V14.00,2013-01-22 22:22:00,
2013-01-22 17:27:00,32.1,4.3,30.10,NW,325,0.0,6.3,30,0.00,,CLR,0.00,VWS V14.00,2013-01-22 22:27:00,
2013-01-22 17:32:00,31.9,4.6,30.11,NNW,347,0.0,3.5,31,0.00,,CLR,0.00,VWS V14.00,2013-01-22 22:32:00,
2013-01-22 17:37:00,32.0,4.9,30.11,NNW,347,0.0,3.5,31,0.00,,CLR,0.00,VWS V14.00,2013-01-22 22:37:00,
2013-01-22 17:42:00,31.8,5.5,30.11,North,354,0.0,4.3,32,0.00,,CLR,0.00,VWS V14.00,2013-01-22 22:42:00,
2013-01-22 17:47:00,31.1,5.2,30.12,North,354,0.0,0.0,33,0.00,,CLR,0.00,VWS V14.00,2013-01-22 22:47:00,
2013-01-22 17:52:00,30.9,5.3,30.12,North,354,0.0,0.0,33,0.00,,CLR,0.00,VWS V14.00,2013-01-22 22:52:00,
2013-01-22 17:57:00,30.9,5.7,30.12,North,354,0.0,0.0,34,0.00,,CLR,0.00,VWS V14.00,2013-01-22 22:57:00,
2013-01-22 18:02:00,30.8,5.8,30.12,NNW,328,2.7,2.7,34,0.00,,CLR,0.00,VWS V14.00,2013-01-22 23:02:00,
2013-01-22 18:07:00,30.8,6.2,30.13,North,8,0.0,7.3,35,0.00,,CLR,0.00,VWS V14.00,2013-01-22 23:07:00,
2013-01-22 18:12:00,29.6,5.0,30.13,North,350,0.0,7.3,34,0.00,,CLR,0.00,VWS V14.00,2013-01-22 23:12:00,
2013-01-22 18:17:00,29.5,4.9,30.13,North,1,0.0,1.5,34,0.00,,CLR,0.00,VWS V14.00,2013-01-22 23:17:00,
2013-01-22 18:22:00,29.8,5.4,30.13,North,0,3.4,7.0,35,0.00,,CLR,0.00,VWS V14.00,2013-01-22 23:22:00,
2013-01-22 18:27:00,29.5,5.0,30.14,North,0,0.0,7.0,35,0.00,,CLR,0.00,VWS V14.00,2013-01-22 23:27:00,
2013-01-22 18:32:00,28.8,4.4,30.14,North,0,0.0,0.0,35,0.00,,CLR,0.00,VWS V14.00,2013-01-22 23:32:00,
2013-01-22 18:37:00,28.6,4.7,30.14,North,0,0.0,0.0,35,0.00,,CLR,0.00,VWS V14.00,2013-01-22 23:37:00,
2013-01-22 18:42:00,28.9,4.9,30.14,North,0,0.0,0.0,35,0.00,,CLR,0.00,VWS V14.00,2013-01-22 23:42:00,
2013-01-22 18:47:00,28.8,5.0,30.14,NE,38,5.1,5.3,36,0.00,,CLR,0.00,VWS V14.00,2013-01-22 23:47:00,
2013-01-22 18:52:00,28.3,4.0,30.14,North,353,0.0,8.1,35,0.00,,CLR,0.00,VWS V14.00,2013-01-22 23:52:00,
2013-01-22 18:57:00,28.6,4.9,30.14,NNE,15,0.0,8.1,36,0.00,,CLR,0.00,VWS V14.00,2013-01-22 23:57:00,
2013-01-22 19:02:00,28.4,4.8,30.14,NNE,15,0.0,0.0,36,0.00,,CLR,0.00,VWS V14.00,2013-01-23 00:02:00,
2013-01-22 19:07:00,28.3,5.0,30.13,NNE,15,0.0,0.0,36,0.00,,CLR,0.00,VWS V14.00,2013-01-23 00:07:00,
2013-01-22 19:12:00,28.2,4.7,30.13,NNE,15,0.0,0.0,36,0.00,,CLR,0.00,VWS V14.00,2013-01-23 00:12:00,
2013-01-22 19:17:00,28.1,4.7,30.13,NNE,15,0.0,0.0,36,0.00,,CLR,0.00,VWS V14.00,2013-01-23 00:17:00,
2013-01-22 19:22:00,28.1,4.9,30.14,NNE,15,0.0,0.0,36,0.00,,CLR,0.00,VWS V14.00,2013-01-23 00:22:00,
2013-01-22 19:27:00,28.1,4.9,30.14,North,353,0.0,4.5,36,0.00,,CLR,0.00,VWS V14.00,2013-01-23 00:27:00,
2013-01-22 19:32:00,28.0,5.0,30.14,North,353,0.0,0.0,37,0.00,,CLR,0.00,VWS V14.00,2013-01-23 00:32:00,
2013-01-22 19:37:00,27.8,5.2,30.13,North,353,0.0,0.0,38,0.00,,CLR,0.00,VWS V14.00,2013-01-23 00:37:00,
2013-01-22 19:42:00,27.9,5.6,30.13,North,353,0.0,0.0,38,0.00,,CLR,0.00,VWS V14.00,2013-01-23 00:42:00,
2013-01-22 19:48:00,28.2,5.7,30.14,North,353,0.0,0.0,38,0.00,,CLR,0.00,VWS V14.00,2013-01-23 00:48:00,
2013-01-22 19:53:00,27.9,6.3,30.14,North,353,0.0,0.0,39,0.00,,CLR,0.00,VWS V14.00,2013-01-23 00:53:00,
2013-01-22 19:58:00,27.6,6.3,30.14,NNW,329,0.0,4.9,40,0.00,,CLR,0.00,VWS V14.00,2013-01-23 00:58:00,
2013-01-22 20:03:00,28.1,7.2,30.14,NNE,14,0.0,0.0,40,0.00,,CLR,0.00,VWS V14.00,2013-01-23 01:03:00,
2013-01-22 20:08:00,27.8,7.0,30.14,North,357,0.0,3.5,41,0.00,,CLR,0.00,VWS V14.00,2013-01-23 01:08:00,
2013-01-22 20:13:00,27.7,6.2,30.14,NNE,24,0.0,4.6,39,0.00,,CLR,0.00,VWS V14.00,2013-01-23 01:13:00,
2013-01-22 20:18:00,27.6,5.9,30.14,North,357,0.0,0.0,39,0.00,,CLR,0.00,VWS V14.00,2013-01-23 01:18:00,
2013-01-22 20:23:00,27.6,5.8,30.15,North,8,0.0,4.9,39,0.00,,CLR,0.00,VWS V14.00,2013-01-23 01:23:00,
2013-01-22 20:28:00,28.0,6.3,30.14,North,8,0.0,4.9,39,0.00,,CLR,0.00,VWS V14.00,2013-01-23 01:28:00,
2013-01-22 20:33:00,27.5,5.4,30.15,North,8,0.0,0.0,38,0.00,,CLR,0.00,VWS V14.00,2013-01-23 01:33:00,
2013-01-22 20:38:00,27.6,5.3,30.15,NNE,25,0.0,5.7,38,0.00,,CLR,0.00,VWS V14.00,2013-01-23 01:38:00,
2013-01-22 20:43:00,27.7,5.2,30.15,NNE,25,0.0,5.7,38,0.00,,CLR,0.00,VWS V14.00,2013-01-23 01:43:00,
2013-01-22 20:48:00,27.8,5.7,30.15,NNE,25,0.0,0.0,38,0.00,,CLR,0.00,VWS V14.00,2013-01-23 01:48:00,
2013-01-22 20:53:00,27.8,5.9,30.15,NNE,25,0.0,0.0,39,0.00,,CLR,0.00,VWS V14.00,2013-01-23 01:53:00,
2013-01-22 20:58:00,27.4,5.9,30.15,NNE,25,0.0,0.0,39,0.00,,CLR,0.00,VWS V14.00,2013-01-23 01:58:00,
2013-01-22 21:03:00,27.2,6.1,30.15,NNE,25,0.0,0.0,40,0.00,,CLR,0.00,VWS V14.00,2013-01-23 02:03:00,
2013-01-22 21:08:00,27.4,6.5,30.15,NNE,25,0.0,0.0,40,0.00,,CLR,0.00,VWS V14.00,2013-01-23 02:08:00,
2013-01-22 21:13:00,27.2,6.4,30.15,NNE,25,0.0,0.0,41,0.00,,CLR,0.00,VWS V14.00,2013-01-23 02:13:00,
2013-01-22 21:18:00,27.1,6.7,30.15,NNE,25,0.0,0.0,41,0.00,,CLR,0.00,VWS V14.00,2013-01-23 02:18:00,
2013-01-22 21:23:00,27.2,6.8,30.15,NNE,25,0.0,0.0,41,0.00,,CLR,0.00,VWS V14.00,2013-01-23 02:23:00,
2013-01-22 21:28:00,27.0,6.5,30.15,NNE,25,0.0,0.0,41,0.00,,CLR,0.00,VWS V14.00,2013-01-23 02:28:00,
2013-01-22 21:33:00,27.0,6.8,30.16,NNE,25,0.0,0.0,42,0.00,,CLR,0.00,VWS V14.00,2013-01-23 02:33:00,
2013-01-22 21:38:00,27.0,6.7,30.16,NNE,25,0.0,0.0,42,0.00,,CLR,0.00,VWS V14.00,2013-01-23 02:38:00,
2013-01-22 21:43:00,26.9,6.1,30.16,NNE,25,0.0,0.0,40,0.00,,CLR,0.00,VWS V14.00,2013-01-23 02:43:00,
2013-01-22 21:48:00,27.1,6.3,30.17,NNE,25,0.0,0.0,40,0.00,,SCT100,0.00,VWS V14.00,2013-01-23 02:48:00,
2013-01-22 21:53:00,26.7,6.2,30.18,NNE,25,0.0,0.0,41,0.00,,SCT100,0.00,VWS V14.00,2013-01-23 02:53:00,
2013-01-22 21:58:00,26.9,6.3,30.18,NNE,25,0.0,0.0,41,0.00,,SCT100,0.00,VWS V14.00,2013-01-23 02:58:00,
2013-01-22 22:03:00,26.8,6.1,30.18,North,6,0.0,5.2,41,0.00,,SCT100,0.00,VWS V14.00,2013-01-23 03:03:00,
2013-01-22 22:08:00,26.8,6.7,30.18,North,6,0.0,5.2,42,0.00,,SCT100,0.00,VWS V14.00,2013-01-23 03:08:00,
2013-01-22 22:13:00,26.7,7.4,30.18,North,3,0.0,5.2,43,0.00,,SCT100,0.00,VWS V14.00,2013-01-23 03:13:00,
2013-01-22 22:18:00,26.5,7.1,30.18,NNE,17,8.1,8.6,43,0.00,,SCT100,0.00,VWS V14.00,2013-01-23 03:18:00,
2013-01-22 22:23:00,26.5,7.1,30.18,NNE,24,4.8,8.6,43,0.00,,SCT100,0.00,VWS V14.00,2013-01-23 03:23:00,
2013-01-22 22:28:00,26.4,6.4,30.17,NNE,21,5.3,8.6,42,0.00,,SCT100,0.00,VWS V14.00,2013-01-23 03:28:00,
2013-01-22 22:33:00,26.8,6.5,30.18,NNW,345,6.5,7.5,42,0.00,,SCT100,0.00,VWS V14.00,2013-01-23 03:33:00,
2013-01-22 22:38:00,26.7,6.3,30.18,NE,48,6.8,8.3,41,0.00,,SCT100,0.00,VWS V14.00,2013-01-23 03:38:00,
2013-01-22 22:43:00,26.6,6.2,30.17,NNE,24,5.0,10.9,41,0.00,,SCT100,0.00,VWS V14.00,2013-01-23 03:43:00,
2013-01-22 22:48:00,26.7,6.4,30.18,NNE,28,0.0,6.3,42,0.00,,FEW100,0.00,VWS V14.00,2013-01-23 03:48:00,
2013-01-22 22:53:00,26.7,6.9,30.17,North,356,0.0,6.3,42,0.00,,FEW100,0.00,VWS V14.00,2013-01-23 03:53:00,
2013-01-22 22:58:00,26.2,6.6,30.17,North,356,0.0,6.3,43,0.00,,FEW100,0.00,VWS V14.00,2013-01-23 03:58:00,
2013-01-22 23:03:00,26.2,6.6,30.17,North,356,0.0,0.0,43,0.00,,FEW100,0.00,VWS V14.00,2013-01-23 04:03:00,
2013-01-22 23:08:00,26.0,6.6,30.18,North,356,0.0,0.0,43,0.00,,FEW100,0.00,VWS V14.00,2013-01-23 04:08:00,
2013-01-22 23:13:00,26.0,6.8,30.17,NNE,28,0.0,4.4,44,0.00,,FEW100,0.00,VWS V14.00,2013-01-23 04:13:00,
2013-01-22 23:18:00,25.9,6.9,30.17,North,10,4.3,8.6,44,0.00,,FEW100,0.00,VWS V14.00,2013-01-23 04:18:00,
2013-01-22 23:23:00,25.8,6.9,30.17,NNE,25,0.0,8.6,44,0.00,,FEW100,0.00,VWS V14.00,2013-01-23 04:23:00,
2013-01-22 23:28:00,25.7,6.6,30.18,ENE,59,0.0,8.6,44,0.00,,FEW100,0.00,VWS V14.00,2013-01-23 04:28:00,
2013-01-22 23:33:00,25.7,6.8,30.18,ENE,59,0.0,0.0,44,0.00,,FEW100,0.00,VWS V14.00,2013-01-23 04:33:00,
2013-01-22 23:38:00,25.6,6.9,30.18,ENE,59,0.0,0.0,44,0.00,,FEW100,0.00,VWS V14.00,2013-01-23 04:38:00,
2013-01-22 23:43:00,25.5,7.0,30.18,ENE,59,0.0,0.0,45,0.00,,FEW100,0.00,VWS V14.00,2013-01-23 04:43:00,
2013-01-22 23:48:00,25.4,7.1,30.18,ENE,59,0.0,0.0,45,0.00,,FEW100,0.00,VWS V14.00,2013-01-23 04:48:00,
2013-01-22 23:53:00,25.4,7.2,30.17,ENE,59,0.0,0.0,45,0.00,,FEW100,0.00,VWS V14.00,2013-01-23 04:53:00,
2013-01-22 23:58:00,25.2,7.2,30.17,ENE,59,0.0,0.0,46,0.00,,FEW100,0.00,VWS V14.00,2013-01-23 04:58:00,